Observations
| Time | Sensor | AQI | SAQ | Temp °C | Hum % | Pres Pa | CO μg/m³ | H₂S μg/m³ | NO μg/m³ | NO₂ μg/m³ | O₃ μg/m³ | SO₂ μg/m³ | CO₂e PPM | VOC PPM | PM1 μg/m³ | PM2.5 μg/m³ | PM4 μg/m³ | PM10 μg/m³ | TPS µm |
|---|---|---|---|---|---|---|---|---|---|---|---|---|---|---|---|---|---|---|---|
| Tuesday 11 August 2026 | |||||||||||||||||||
| 08:21 | Trim Market St | 1 | 24.1 | 54 | 56,130 | 0.43 | 0 | 1.92 | 12.08 | 9.93 | 0 | 0.71 | 2.79 | 3.2 | |||||
| 08:20 | Trim Patrick St | 1 | 20.8 | 61 | 78,790 | 0.4 | 0 | 3.85 | 11.46 | 0 | 0.98 | 4.57 | 8.66 | 9.52 | |||||
| 08:20 | Trim Market St | 1 | 23.9 | 54 | 56,219 | 0.43 | 0 | 2.16 | 8.87 | 0 | 0 | 0 | 3.29 | 3.92 | |||||
| 08:19 | Trim Patrick St | 1 | 20.7 | 61 | 79,329 | 0.41 | 0 | 3.57 | 11.2 | 0 | 0.72 | 3.71 | 7.91 | 8.7 | |||||
| 08:18 | Trim Patrick St | 1 | 20.6 | 62 | 80,018 | 0.42 | 0 | 4.06 | 12.81 | 0 | 0.98 | 3.71 | 8.63 | 9.49 | |||||
| 08:17 | Trim Patrick St | 1 | 20.5 | 62 | 80,835 | 0.43 | 0 | 4.05 | 10.33 | 0 | 0 | 4.57 | 7.88 | 8.67 | |||||
| 08:16 | Trim Patrick St | 1 | 20.3 | 62 | 82,006 | 0.47 | 0 | 3.89 | 11.95 | 0 | 0.49 | 3.71 | 8.59 | 9.45 | |||||
| 08:15 | Trim Patrick St | 1 | 20.2 | 62 | 83,520 | 0.5 | 0 | 4.18 | 12.29 | 0 | 1 | 3.71 | 7.84 | 8.62 | |||||
| 08:15 | Trim Market St | 1 | 23.3 | 56 | 56,909 | 0.47 | 0 | 2.63 | 13.41 | 24.15 | 0 | 0.71 | 3.22 | 3.97 | |||||
| 08:14 | Trim Patrick St | 1 | 20.1 | 63 | 85,441 | 0.51 | 0 | 4.61 | 18.58 | 0 | 0.86 | 2.86 | 7.08 | 7.79 | |||||
| 08:13 | Trim Patrick St | 1 | 20 | 63 | 87,785 | 0.49 | 0 | 4.93 | 12.1 | 0 | 0 | 2.86 | 7.07 | 7.78 | |||||
| 08:12 | Trim Patrick St | 1 | 19.9 | 63 | 90,941 | 0.5 | 0 | 4.7 | 15.7 | 0 | 0.86 | 4.57 | 8.52 | 9.37 | |||||
| 08:11 | Trim Patrick St | 1 | 19.8 | 64 | 94,983 | 0.5 | 0 | 4.92 | 19.81 | 0 | 0.85 | 3.71 | 9.23 | 10.15 | |||||
| 08:11 | Trim Market St | 1 | 22.9 | 57 | 56,892 | 0.51 | 0 | 2.61 | 10.17 | 0 | 0 | 0.71 | 3.18 | 4 | |||||
| 08:10 | Trim Patrick St | 1 | 19.7 | 64 | 100,023 | 0.54 | 0 | 4.46 | 22.09 | 0 | 1.57 | 3.71 | 7.02 | 7.73 | |||||
| 08:10 | Trim Market St | 1 | 22.7 | 57 | 56,990 | 0.52 | 0 | 2.57 | 8.55 | 0 | 0 | 0.71 | 2.66 | 4.71 | |||||
| 08:09 | Trim Patrick St | 1 | 19.5 | 64 | 106,327 | 0.54 | 0 | 4.25 | 12.87 | 0 | 0 | 4.57 | 8.44 | 9.29 | |||||
| 08:09 | Trim Market St | 1 | 22.6 | 57 | 57,193 | 0.55 | 0 | 2.74 | 8.96 | 0 | 0 | 1.43 | 3.14 | 4.02 | |||||
| 08:08 | Trim Patrick St | 1 | 19.4 | 65 | 111,767 | 0.57 | 0 | 3.54 | 12.87 | 0 | 0.06 | 2.86 | 6.95 | 7.65 | |||||
| 08:08 | Trim Market St | 1 | 22.5 | 58 | 57,459 | 0.56 | 0 | 2.88 | 10.24 | 0 | 0 | 0.71 | 3.62 | 6.13 | |||||